Location: Cedar Brake
(32.2526°N, 97.8459°W)
Time: 08:34:00
(UTC+00:00)

PSLV R/B - Pass Details

Date: 22 April 2026
Orbit: 559 x 585 km, 98.0° (Epoch: 15 May)

Event Time Altitude Azimuth Distance (km) Brightness Sun altitude
Rises 01:47:56 0° 174° (S) 2,758 6.6 -9.4°
Reaches altitude 10° 01:50:04 10° 178° (S) 1,869 5.8 -9.8°
Maximum altitude 01:54:05 61° 259° (W) 653 4.0 -10.6°
Drops below altitude 10° 01:58:09 10° 340° (NNW) 1,896 6.7 -11.4°
Sets 02:00:20 0° 344° (NNW) 2,803 7.5 -11.8°
